Location: Rounton
(54.4000°N, 1.3500°W)
Time: 22:07:47
(UTC+01:00)

YAOGAN 20A - Pass Details

Date: 01 July 2022
Orbit: 891 x 1288 km, 63.4° (Epoch: 18 August)

Event Time Altitude Azimuth Distance (km) Brightness Sun altitude
Rises 00:46:43 0° 308° (NW) 3,782 8.7 -12.3°
Reaches altitude 10° 00:49:14 10° 310° (NW) 2,882 8.0 -12.4°
Maximum altitude 00:56:09 79° 38° (NE) 1,161 5.4 -12.4°
Drops below altitude 10° 01:03:45 10° 125° (SE) 3,158 7.2 -12.5°
Sets 01:06:37 0° 127° (SE) 4,165 7.8 -12.5°
